2018-091B

Last updated on Mon Nov 19 2018 00:02:08 GMT+0000 (Coordinated Universal Time)

1 43703U 18091B 18322.46909684 .02151265 12221-4 31463-3 0 9992 2 43703 51.6284 329.7115 0020357 93.4949 267.0490 16.33033142 282

Satellite not in orbit